Location: Banios
(43.0451°N, 0.2335°E)
Time: 12:03:33
(UTC+00:00)

USA 307 - Pass Details

Date: 25 January 2021
Orbit: 565 x 580 km, 54.0° (Epoch: 24 February)

Event Time Altitude Azimuth Distance (km) Brightness Sun altitude
Exits shadow 06:15:35 15° 258° (WSW) 1,568 4.6 -12.0°
Maximum altitude 06:18:53 47° 329° (NNW) 753 3.2 -11.4°
Drops below altitude 10° 06:22:59 10° 45° (NE) 1,865 5.9 -10.7°
Sets 06:25:19 0° 51° (NE) 2,765 6.9 -10.3°
